Logansport, IN

12:20 PM EST on December 05, 2016 (GMT -0500)
Logansport Municipal

Weather History for KGGP - October, 2012

Change the Weather History Date:

Wednesday, October 17, 2012

  Actual Average Record
Temperature  
Mean Temperature 60 °F -  
Max Temperature 69 °F 60 °F 80 °F (2016)
Min Temperature 51 °F 42 °F 30 °F (2015)
Degree Days  
Heating Degree Days 5    
Growing Degree Days 10 (Base 50)    
Moisture  
Dew Point 49 °F    
Average Humidity 70    
Maximum Humidity 88    
Minimum Humidity 40    
Precipitation  
Precipitation 0.12 in - - ()
Sea Level Pressure  
Sea Level Pressure 29.60 in    
Wind  
Wind Speed 13 mph ()    
Max Wind Speed 28 mph    
Max Gust Speed 38 mph    
Visibility 10.0 miles    
Events Rain    
Averages and records for this station are not official NWS values.
T = Trace of Precipitation, MM = Missing Value Source: Averaged Metar Reports

Daily Weather History Graph

Daily Weather History Graph

Search for Another Location

Airport or City:

Trip Planner

Search our weather history database for the weather conditions in past years. The results will help you decide how hot, cold, wet, or windy it might be!

Date:

Astronomy

Oct. 17, 2012 Rise Set
Actual Time 7:59 AM EDT 7:01 PM EDT
Civil Twilight 7:31 AM EDT 7:29 PM EDT
Nautical Twilight 6:59 AM EDT 8:00 PM EDT
Astronomical Twilight 6:28 AM EDT 8:32 PM EDT
Moon 10:34 AM EDT (10/17) 8:35 PM EDT (10/17)
Length of Visible Light 11h 57m
Length of Day
11h 02m
Waxing Crescent, 7% of the Moon is Illuminated
Oct 17
Waxing Crescent
Oct 21
First Quarter
Oct 29
Full
Nov 6
Last Quarter
Nov 13
New

Hourly Weather History & Observations

Time (EDT) Temp. Dew Point Humidity Pressure Visibility Wind Dir Wind Speed Gust Speed Precip Events Conditions
12:15 AM 59.0 °F 46.4 °F 63% 29.70 in 10.0 mi South 16.1 mph - N/A   Mostly Cloudy
12:55 AM 59.0 °F 46.4 °F 63% 29.69 in 10.0 mi South 15.0 mph - N/A   Scattered Clouds
1:15 AM 59.0 °F 46.4 °F 63% 29.69 in 10.0 mi South 13.8 mph - N/A   Scattered Clouds
1:35 AM 57.2 °F 46.4 °F 67% 29.69 in 10.0 mi South 11.5 mph - N/A   Clear
1:55 AM 57.2 °F 48.2 °F 72% 29.69 in 10.0 mi South 9.2 mph - N/A   Clear
2:15 AM 55.4 °F 48.2 °F 77% 29.69 in 10.0 mi SSW 5.8 mph - N/A   Clear
2:35 AM 55.4 °F 48.2 °F 77% 29.70 in 10.0 mi SSW 5.8 mph - N/A   Clear
2:55 AM 55.4 °F 50.0 °F 82% 29.70 in 10.0 mi SSW 8.1 mph - N/A   Clear
3:15 AM 55.4 °F 50.0 °F 82% 29.70 in 10.0 mi SSW 8.1 mph - N/A   Clear
3:35 AM 55.4 °F 50.0 °F 82% 29.69 in 10.0 mi South 8.1 mph - N/A   Clear
3:55 AM 55.4 °F 50.0 °F 82% 29.68 in 10.0 mi South 10.4 mph - N/A   Clear
4:15 AM 55.4 °F 50.0 °F 82% 29.68 in 10.0 mi South 10.4 mph - N/A   Clear
4:35 AM 55.4 °F 50.0 °F 82% 29.68 in 10.0 mi SSW 10.4 mph - N/A   Clear
4:55 AM 53.6 °F 48.2 °F 82% 29.68 in 10.0 mi South 9.2 mph - N/A   Clear
5:15 AM 53.6 °F 46.4 °F 77% 29.68 in 10.0 mi South 8.1 mph - N/A   Clear
6:15 AM 51.8 °F 46.4 °F 82% 29.68 in 10.0 mi South 9.2 mph - N/A   Clear
6:35 AM 51.8 °F 46.4 °F 82% 29.67 in 10.0 mi South 9.2 mph - N/A   Clear
6:55 AM 51.8 °F 46.4 °F 82% 29.67 in 10.0 mi South 9.2 mph - N/A   Clear
7:15 AM 51.8 °F 46.4 °F 82% 29.67 in 10.0 mi South 10.4 mph - N/A   Clear
7:55 AM 51.8 °F 46.4 °F 82% 29.68 in 10.0 mi South 11.5 mph - N/A   Clear
8:15 AM 51.8 °F 46.4 °F 82% 29.68 in 10.0 mi South 9.2 mph - N/A   Clear
8:35 AM 53.6 °F 46.4 °F 77% 29.68 in 10.0 mi South 10.4 mph - N/A   Clear
8:55 AM 55.4 °F 48.2 °F 77% 29.67 in 10.0 mi South 12.7 mph 17.3 mph N/A   Clear
9:15 AM 57.2 °F 48.2 °F 72% 29.67 in 10.0 mi South 12.7 mph - N/A   Clear
9:35 AM 59.0 °F 50.0 °F 72% 29.68 in 10.0 mi South 12.7 mph - N/A   Clear
9:55 AM 60.8 °F 50.0 °F 68% 29.67 in 10.0 mi SSW 13.8 mph 20.7 mph N/A   Clear
10:15 AM 62.6 °F 48.2 °F 59% 29.67 in 10.0 mi South 18.4 mph 25.3 mph N/A   Clear
10:35 AM 62.6 °F 46.4 °F 55% 29.66 in 10.0 mi South 15.0 mph 23.0 mph N/A   Clear
10:55 AM 64.4 °F 48.2 °F 56% 29.66 in 10.0 mi South 17.3 mph - N/A   Clear
11:15 AM 66.2 °F 46.4 °F 49% 29.65 in 10.0 mi South 17.3 mph 26.5 mph N/A   Clear
11:35 AM 68.0 °F 48.2 °F 49% 29.64 in 10.0 mi South 18.4 mph 25.3 mph N/A   Clear
11:55 AM 68.0 °F 48.2 °F 49% 29.63 in 10.0 mi South 18.4 mph 25.3 mph N/A   Clear
12:35 PM 68.0 °F 46.4 °F 46% 29.63 in 10.0 mi SSW 20.7 mph 29.9 mph N/A   Clear
12:55 PM 69.8 °F 48.2 °F 46% 29.63 in 10.0 mi South 23.0 mph 26.5 mph N/A   Clear
1:15 PM 69.8 °F 46.4 °F 43% 29.62 in 10.0 mi South 26.5 mph 33.4 mph N/A   Mostly Cloudy
1:35 PM 69.8 °F 44.6 °F 40% 29.61 in 10.0 mi SSW 20.7 mph 34.5 mph N/A   Overcast
1:55 PM 68.0 °F 44.6 °F 43% 29.61 in 10.0 mi SSW 27.6 mph 38.0 mph N/A   Overcast
2:15 PM 68.0 °F 46.4 °F 46% 29.60 in 10.0 mi SSW 25.3 mph 32.2 mph N/A   Overcast
2:35 PM 66.2 °F 46.4 °F 49% 29.59 in 10.0 mi South 25.3 mph 35.7 mph N/A   Overcast
2:55 PM 68.0 °F 50.0 °F 52% 29.59 in 10.0 mi South 23.0 mph 29.9 mph N/A   Overcast
3:15 PM 66.2 °F 50.0 °F 56% 29.58 in 10.0 mi South 19.6 mph 27.6 mph N/A   Overcast
3:35 PM 66.2 °F 50.0 °F 56% 29.57 in 10.0 mi South 25.3 mph 29.9 mph N/A   Mostly Cloudy
3:55 PM 64.4 °F 50.0 °F 59% 29.56 in 10.0 mi South 17.3 mph 28.8 mph N/A   Mostly Cloudy
4:15 PM 64.4 °F 50.0 °F 59% 29.56 in 10.0 mi South 24.2 mph 28.8 mph N/A   Overcast
4:35 PM 62.6 °F 51.8 °F 68% 29.56 in 10.0 mi South 23.0 mph 29.9 mph N/A Rain Light Rain
4:55 PM 59.0 °F 53.6 °F 82% 29.56 in 10.0 mi South 16.1 mph 25.3 mph N/A   Overcast
5:15 PM 57.2 °F 53.6 °F 88% 29.56 in 10.0 mi SSE 12.7 mph - 0.04 in Rain Light Rain
5:35 PM 57.2 °F 51.8 °F 82% 29.56 in 10.0 mi SSE 13.8 mph 18.4 mph 0.04 in   Overcast
5:55 PM 55.4 °F 51.8 °F 88% 29.55 in 10.0 mi SE 13.8 mph - 0.08 in Rain Light Rain
6:15 PM 55.4 °F 51.8 °F 88% 29.54 in 10.0 mi SE 12.7 mph 18.4 mph N/A   Overcast
6:35 PM 57.2 °F 51.8 °F 82% 29.53 in 10.0 mi SE 12.7 mph - N/A   Overcast
6:55 PM 57.2 °F 51.8 °F 82% 29.53 in 10.0 mi SE 12.7 mph - N/A   Overcast
7:15 PM 59.0 °F 51.8 °F 77% 29.52 in 10.0 mi SE 13.8 mph 18.4 mph N/A   Overcast
7:35 PM 59.0 °F 53.6 °F 82% 29.50 in 10.0 mi SE 16.1 mph 20.7 mph N/A   Overcast
7:55 PM 59.0 °F 53.6 °F 82% 29.49 in 10.0 mi SSE 16.1 mph 24.2 mph N/A   Overcast
8:15 PM 59.0 °F 51.8 °F 77% 29.48 in 10.0 mi SSE 16.1 mph 23.0 mph N/A   Overcast
8:35 PM 59.0 °F 51.8 °F 77% 29.46 in 10.0 mi SE 17.3 mph 23.0 mph N/A   Overcast
8:55 PM 59.0 °F 51.8 °F 77% 29.45 in 10.0 mi SE 15.0 mph - N/A   Overcast
9:15 PM 60.8 °F 51.8 °F 72% 29.43 in 10.0 mi SE 11.5 mph 19.6 mph N/A   Overcast
9:35 PM 60.8 °F 51.8 °F 72% 29.43 in 10.0 mi SSE 13.8 mph 23.0 mph N/A   Overcast
9:55 PM 60.8 °F 51.8 °F 72% 29.42 in 10.0 mi SE 11.5 mph - N/A   Overcast
10:35 PM 62.6 °F 50.0 °F 63% 29.45 in 10.0 mi SSE 16.1 mph 25.3 mph N/A   Overcast
10:55 PM 60.8 °F 51.8 °F 72% 29.45 in 10.0 mi SSE 13.8 mph - N/A Rain Light Rain
11:15 PM 60.8 °F 51.8 °F 72% 29.46 in 10.0 mi South 13.8 mph 19.6 mph N/A Rain Light Rain
11:55 PM 57.2 °F 53.6 °F 88% 29.46 in 10.0 mi South 17.3 mph 20.7 mph 0.04 in Rain Light Rain